Baton Rouge, LA

12:06 AM CST on December 11, 2017 (GMT -0600)
Baton Rouge Metro-Ryan

Weather History for KBTR - March, 2012

Change the Weather History Date:

Friday, March 23, 2012

  Actual Average Record
Temperature  
Mean Temperature 68 °F 63 °F  
Max Temperature 80 °F 74 °F 86 °F (1907)
Min Temperature 56 °F 52 °F 33 °F (1955)
Degree Days  
Heating Degree Days 0 4  
Month to date heating degree days 37 138  
Since 1 July heating degree days 1116 1473  
Cooling Degree Days 3 2  
Month to date cooling degree days 112 39  
Year to date cooling degree days 191 70  
Growing Degree Days 18 (Base 50)    
Moisture  
Dew Point 57 °F    
Average Humidity 68    
Maximum Humidity 100    
Minimum Humidity 35    
Precipitation  
Precipitation 0.00 in 0.15 in 2.99 in (1958)
Month to date precipitation 6.08 3.21  
Year to date precipitation 19.39 13.97  
Snow  
Snow 0.00 in - - ()
Month to date snowfall 0.0  
Since 1 July snowfall 0.0  
Snow Depth 0.00 in    
Sea Level Pressure  
Sea Level Pressure 29.99 in    
Wind  
Wind Speed 2 mph (NW)    
Max Wind Speed 12 mph    
Max Gust Speed 17 mph    
Visibility 6 miles    
Events Fog    
T = Trace of Precipitation, MM = Missing Value Source: NWS Daily Summary

Daily Weather History Graph

Daily Weather History Graph

Search for Another Location

Airport or City:

Trip Planner

Search our weather history database for the weather conditions in past years. The results will help you decide how hot, cold, wet, or windy it might be!

Date:

Astronomy

Mar. 23, 2012 Rise Set
Actual Time 7:04 AM CDT 7:18 PM CDT
Civil Twilight 6:40 AM CDT 7:42 PM CDT
Nautical Twilight 6:12 AM CDT 8:10 PM CDT
Astronomical Twilight 5:43 AM CDT 8:38 PM CDT
Moon 7:20 AM CDT (3/23) 8:30 PM CDT (3/23)
Length of Visible Light 13h 02m
Length of Day
12h 14m
New Moon, 1% of the Moon is Illuminated
Mar 23
New Moon
Mar 30
First Quarter
Apr 6
Full
Apr 13
Last Quarter
Apr 21
New

Hourly Weather History & Observations

Time (CDT) Temp. Dew Point Humidity Pressure Visibility Wind Dir Wind Speed Gust Speed Precip Events Conditions
12:53 AM 59.0 °F 57.9 °F 96% 29.97 in 9.0 mi Calm Calm - N/A   Scattered Clouds
1:53 AM 60.1 °F 57.9 °F 93% 29.97 in 10.0 mi NNE 3.5 mph - N/A   Mostly Cloudy
2:53 AM 61.0 °F 59.0 °F 93% 29.96 in 10.0 mi Calm Calm - N/A   Overcast
3:53 AM 57.9 °F 57.0 °F 97% 29.96 in 8.0 mi Calm Calm - N/A   Clear
4:07 AM 57.2 °F 57.2 °F 100% 29.96 in 6.0 mi Calm Calm - N/A   Scattered Clouds
4:15 AM 57.2 °F 57.2 °F 100% 29.96 in 7.0 mi Calm Calm - N/A   Mostly Cloudy
4:26 AM 57.2 °F 55.4 °F 94% 29.97 in 7.0 mi Calm Calm - N/A   Scattered Clouds
4:35 AM 57.2 °F 57.2 °F 100% 29.97 in 8.0 mi NE 3.5 mph - N/A   Mostly Cloudy
4:53 AM 57.0 °F 55.9 °F 96% 29.96 in 6.0 mi East 3.5 mph - N/A   Mostly Cloudy
5:46 AM 57.2 °F 55.4 °F 94% 29.97 in 2.0 mi Calm Calm - N/A   Overcast
5:49 AM 57.2 °F 55.4 °F 94% 29.97 in 0.2 mi Calm Calm - N/A Fog Fog
5:53 AM 55.9 °F 55.9 °F 100% 29.96 in 0.2 mi ESE 3.5 mph - N/A Fog Fog
6:05 AM 57.2 °F 57.2 °F 100% 29.96 in 0.5 mi NNW 3.5 mph - N/A Fog Fog
6:12 AM 57.2 °F 57.2 °F 100% 29.96 in 2.0 mi North 3.5 mph - N/A   Overcast
6:53 AM 60.1 °F 59.0 °F 96% 29.99 in 1.5 mi Calm Calm - N/A   Overcast
7:16 AM 60.8 °F 60.8 °F 100% 30.02 in 0.5 mi Calm Calm - N/A Fog Fog
7:27 AM 60.8 °F 60.8 °F 100% 30.02 in 0.2 mi Calm Calm - N/A Fog Fog
7:46 AM 60.8 °F 60.8 °F 100% 30.02 in 0.1 mi NNW 3.5 mph - N/A Fog Fog
7:53 AM 60.1 °F 60.1 °F 100% 30.03 in 0.1 mi Calm Calm - N/A Fog Fog
8:53 AM 61.0 °F 60.1 °F 97% 30.03 in 0.1 mi Calm Calm - N/A Fog Fog
9:00 AM 60.8 °F 60.8 °F 100% 30.03 in 0.2 mi Calm Calm - N/A Fog Fog
9:12 AM 60.8 °F 60.8 °F 100% 30.03 in 0.1 mi Calm Calm - N/A Fog Fog
9:36 AM 60.8 °F 60.8 °F 100% 30.04 in 0.5 mi Calm Calm - N/A Fog Fog
9:53 AM 62.1 °F 61.0 °F 96% 30.04 in 2.5 mi Calm Calm - N/A   Overcast
10:36 AM 66.2 °F 60.8 °F 83% 30.04 in 4.0 mi WNW 3.5 mph - N/A   Haze
10:53 AM 68.0 °F 61.0 °F 78% 30.04 in 9.0 mi Calm Calm - N/A   Partly Cloudy
11:53 AM 72.0 °F 59.0 °F 64% 30.04 in 10.0 mi Variable 4.6 mph - N/A   Clear
12:53 PM 75.0 °F 59.0 °F 57% 30.02 in 10.0 mi SW 5.8 mph - N/A   Clear
1:53 PM 78.1 °F 48.0 °F 35% 30.00 in 10.0 mi NW 6.9 mph - N/A   Clear
2:53 PM 79.0 °F 51.1 °F 38% 29.98 in 10.0 mi West 8.1 mph - N/A   Clear
3:53 PM 80.1 °F 51.1 °F 36% 29.96 in 10.0 mi West 10.4 mph - N/A   Clear
4:53 PM 80.1 °F 51.1 °F 36% 29.96 in 10.0 mi West 8.1 mph - N/A   Clear
5:53 PM 79.0 °F 51.1 °F 38% 29.95 in 10.0 mi West 4.6 mph - N/A   Clear
6:53 PM 75.9 °F 55.9 °F 50% 29.95 in 10.0 mi Calm Calm - N/A   Clear
7:53 PM 66.9 °F 57.0 °F 70% 29.95 in 10.0 mi Calm Calm - N/A   Clear
8:53 PM 64.0 °F 59.0 °F 84% 29.95 in 10.0 mi Calm Calm - N/A   Clear
9:53 PM 62.1 °F 57.9 °F 86% 29.97 in 10.0 mi Calm Calm - N/A   Clear
10:53 PM 60.1 °F 57.0 °F 90% 29.97 in 10.0 mi Calm Calm - N/A   Clear
11:53 PM 59.0 °F 55.9 °F 90% 29.96 in 10.0 mi Calm Calm - N/A   Clear